When you browse on this site, cookies collect data to enhance your experience and personalize the content and advertising you see.
Visit our Privacy Policy to learn more. By continuing to use the site, you agree to this use of cookies and data.
  • In Sweden
  • List of Countries
  • For 7 days
  • Water Temperature
  • Satellite Maps
  • Weather Map
  • Weather Widgets
  • user-avatar
    Login

    Hourly Weather Debrecen

    Today, 17 January, Thursday

    Time Temperature Precipitation Wind Pressure Humidity
    00:00 -2°C° 0 mm 5 mps 750 mmHg 90%
    01:00 -2°C° 0 mm 5 mps 750 mmHg 89%
    02:00 -2°C° 0 mm 5 mps 750 mmHg 89%
    03:00 -3°C° 0 mm 6 mps 749 mmHg 90%
    04:00 -3°C° 0 mm 6 mps 749 mmHg 90%
    05:00 -3°C° 0 mm 6 mps 749 mmHg 90%
    06:00 -3°C° 0 mm 6 mps 749 mmHg 89%
    07:00 -2°C° 0 mm 6 mps 749 mmHg 89%
    08:00 -2°C° 0 mm 6 mps 749 mmHg 88%
    09:00 -2°C° 0 mm 6 mps 749 mmHg 87%
    10:00 -1°C° 0 mm 6 mps 749 mmHg 87%
    11:00 -1°C° 0 mm 6 mps 749 mmHg 87%
    12:00 -1°C° 0 mm 6 mps 749 mmHg 87%
    13:00 +1°C° 0 mm 6 mps 749 mmHg 88%
    14:00 +1°C° 0 mm 6 mps 749 mmHg 88%
    15:00 +1°C° 0 mm 6 mps 749 mmHg 88%
    16:00 +1°C° 0 mm 6 mps 749 mmHg 89%
    17:00 +1°C° 0 mm 6 mps 748 mmHg 89%
    18:00 +1°C° 0 mm 6 mps 748 mmHg 88%
    19:00 +1°C° 0 mm 6 mps 748 mmHg 88%
    20:00 -1°C° 0 mm 6 mps 748 mmHg 86%
    21:00 -1°C° 0 mm 6 mps 748 mmHg 85%
    22:00 -1°C° 0 mm 6 mps 747 mmHg 83%
    23:00 -1°C° 0.3 mm 6 mps 747 mmHg 84%

    Tomorrow, 18 January, Friday

    Time Temperature Precipitation Wind Pressure Humidity
    00:00 -1°C° 0.3 mm 6 mps 747 mmHg 85%
    01:00 0°C° 0.3 mm 5 mps 747 mmHg 86%
    02:00 -1°C° 0.5 mm 6 mps 747 mmHg 86%
    03:00 -1°C° 0.5 mm 6 mps 747 mmHg 86%
    04:00 -1°C° 0.5 mm 6 mps 746 mmHg 86%
    05:00 -1°C° 0 mm 6 mps 746 mmHg 88%
    06:00 -1°C° 0 mm 6 mps 747 mmHg 89%
    07:00 -1°C° 0 mm 6 mps 747 mmHg 91%
    08:00 0°C° 0.1 mm 5 mps 747 mmHg 92%
    09:00 0°C° 0.1 mm 5 mps 747 mmHg 93%
    10:00 0°C° 0.1 mm 4 mps 748 mmHg 94%
    11:00 +1°C° 0.1 mm 4 mps 748 mmHg 93%
    12:00 +1°C° 0.1 mm 4 mps 748 mmHg 91%
    13:00 +1°C° 0.1 mm 4 mps 748 mmHg 90%
    14:00 +1°C° 0 mm 4 mps 749 mmHg 87%
    15:00 +1°C° 0 mm 4 mps 749 mmHg 84%
    16:00 +1°C° 0 mm 4 mps 750 mmHg 81%
    17:00 0°C° 0 mm 4 mps 750 mmHg 82%
    18:00 0°C° 0 mm 3 mps 751 mmHg 82%
    19:00 0°C° 0 mm 3 mps 752 mmHg 82%
    20:00 -1°C° 0 mm 2 mps 752 mmHg 82%
    21:00 -1°C° 0 mm 2 mps 753 mmHg 83%
    22:00 0°C° 0 mm 1 mps 753 mmHg 83%
    23:00 0°C° 0 mm 1 mps 754 mmHg 83%

    Day after tomorrow, 19 January, Saturday

    Time Temperature Precipitation Wind Pressure Humidity
    00:00 0°C° 0 mm 1 mps 754 mmHg 82%
    01:00 -3°C° 0 mm 2 mps 754 mmHg 82%
    02:00 -3°C° 0 mm 2 mps 754 mmHg 83%
    03:00 -3°C° 0 mm 2 mps 755 mmHg 83%
    04:00 -3°C° 0 mm 2 mps 755 mmHg 84%
    05:00 -3°C° 0 mm 2 mps 755 mmHg 85%
    06:00 -3°C° 0 mm 2 mps 755 mmHg 85%
    07:00 -4°C° 0 mm 2 mps 756 mmHg 86%
    08:00 -4°C° 0 mm 3 mps 756 mmHg 83%
    09:00 -2°C° 0 mm 3 mps 756 mmHg 80%
    10:00 -2°C° 0 mm 3 mps 756 mmHg 76%
    11:00 -2°C° 0 mm 4 mps 755 mmHg 75%
    12:00 -2°C° 0 mm 4 mps 755 mmHg 73%
    13:00 -1°C° 0 mm 4 mps 754 mmHg 71%
    14:00 -2°C° 0 mm 4 mps 754 mmHg 74%
    15:00 -3°C° 0 mm 4 mps 754 mmHg 77%
    16:00 -3°C° 0 mm 4 mps 753 mmHg 80%
    17:00 -3°C° 0 mm 4 mps 753 mmHg 81%
    18:00 -3°C° 0 mm 4 mps 753 mmHg 81%
    19:00 -3°C° 0 mm 4 mps 753 mmHg 81%
    20:00 -3°C° 0 mm 4 mps 753 mmHg 81%
    21:00 -2°C° 0 mm 3 mps 753 mmHg 82%
    22:00 -2°C° 0 mm 3 mps 753 mmHg 82%
    23:00 -2°C° 0.1 mm 3 mps 752 mmHg 84%

    20 January, Sunday

    Time Temperature Precipitation Wind Pressure Humidity
    00:00 -2°C° 0.1 mm 3 mps 752 mmHg 85%
    01:00 -2°C° 0.1 mm 3 mps 752 mmHg 87%
    02:00 -2°C° 0.4 mm 3 mps 751 mmHg 89%
    03:00 -2°C° 0.4 mm 3 mps 751 mmHg 92%
    04:00 -2°C° 0.4 mm 3 mps 750 mmHg 95%
    05:00 -2°C° 0.4 mm 2 mps 750 mmHg 95%
    06:00 -2°C° 0.4 mm 2 mps 750 mmHg 95%
    07:00 0°C° 0.4 mm 1 mps 750 mmHg 95%
    08:00 +1°C° 0.4 mm 1 mps 750 mmHg 96%
    09:00 +1°C° 0.4 mm 1 mps 750 mmHg 96%
    10:00 +1°C° 0.4 mm 1 mps 750 mmHg 97%
    11:00 +1°C° 0.5 mm 1 mps 750 mmHg 97%
    12:00 0°C° 0.5 mm 0 mps 750 mmHg 98%
    13:00 0°C° 0.5 mm 0 mps 750 mmHg 98%
    14:00 +1°C° 0.2 mm 1 mps 750 mmHg 98%
    15:00 +1°C° 0.2 mm 1 mps 750 mmHg 98%
    16:00 +1°C° 0.2 mm 1 mps 750 mmHg 98%
    17:00 +1°C° 0 mm 1 mps 750 mmHg 98%
    18:00 +1°C° 0 mm 1 mps 751 mmHg 97%
    19:00 +1°C° 0 mm 1 mps 751 mmHg 96%
    20:00 -1°C° 0 mm 2 mps 751 mmHg 96%
    21:00 -2°C° 0 mm 2 mps 752 mmHg 96%
    22:00 -2°C° 0 mm 2 mps 752 mmHg 95%
    23:00 -2°C° 0 mm 2 mps 752 mmHg 95%

    21 January, Monday

    Time Temperature Precipitation Wind Pressure Humidity
    00:00 0°C° 0 mm 1 mps 752 mmHg 95%
    01:00 0°C° 0 mm 1 mps 753 mmHg 94%
    02:00 0°C° 0 mm 1 mps 753 mmHg 93%
    03:00 0°C° 0 mm 1 mps 753 mmHg 93%
    04:00 0°C° 0 mm 1 mps 753 mmHg 92%
    05:00 -1°C° 0 mm 1 mps 753 mmHg 90%
    06:00 -1°C° 0 mm 1 mps 754 mmHg 89%
    07:00 -3°C° 0 mm 2 mps 754 mmHg 88%
    08:00 -3°C° 0 mm 2 mps 754 mmHg 85%
    09:00 -3°C° 0 mm 2 mps 754 mmHg 82%
    10:00 -3°C° 0 mm 2 mps 755 mmHg 79%
    11:00 -3°C° 0 mm 2 mps 755 mmHg 78%
    12:00 -2°C° 0 mm 2 mps 755 mmHg 78%
    13:00 -2°C° 0 mm 2 mps 754 mmHg 77%
    14:00 -1°C° 0 mm 1 mps 754 mmHg 80%
    15:00 -1°C° 0 mm 1 mps 754 mmHg 82%
    16:00 -1°C° 0 mm 1 mps 754 mmHg 84%
    17:00 -3°C° 0 mm 0 mps 755 mmHg 85%
    18:00 -3°C° 0 mm 0 mps 755 mmHg 86%
    19:00 -3°C° 0 mm 0 mps 755 mmHg 87%
    20:00 -3°C° 0 mm 0 mps 755 mmHg 87%
    21:00 -2°C° 0 mm 1 mps 755 mmHg 88%
    22:00 -2°C° 0 mm 1 mps 755 mmHg 88%
    23:00 -2°C° 0 mm 1 mps 755 mmHg 89%

    22 January, Tuesday

    Time Temperature Precipitation Wind Pressure Humidity
    00:00 -2°C° 0 mm 1 mps 755 mmHg 89%
    01:00 -4°C° 0 mm 2 mps 754 mmHg 90%
    02:00 -5°C° 0 mm 2 mps 754 mmHg 91%
    03:00 -5°C° 0 mm 2 mps 754 mmHg 92%
    04:00 -5°C° 0 mm 2 mps 753 mmHg 93%
    05:00 -5°C° 0 mm 2 mps 753 mmHg 93%
    06:00 -6°C° 0 mm 3 mps 753 mmHg 93%
    07:00 -7°C° 0 mm 3 mps 752 mmHg 94%
    08:00 -6°C° 0 mm 3 mps 752 mmHg 92%
    09:00 -6°C° 0 mm 3 mps 751 mmHg 90%
    10:00 -5°C° 0 mm 4 mps 751 mmHg 88%
    11:00 -5°C° 0 mm 4 mps 750 mmHg 87%
    12:00 -4°C° 0 mm 4 mps 749 mmHg 85%
    13:00 -5°C° 0 mm 5 mps 748 mmHg 84%
    14:00 -5°C° 0 mm 5 mps 747 mmHg 84%
    15:00 -5°C° 0 mm 5 mps 746 mmHg 85%
    16:00 -4°C° 0 mm 5 mps 745 mmHg 86%
    17:00 -4°C° 0.3 mm 5 mps 744 mmHg 88%
    18:00 -4°C° 0.3 mm 5 mps 743 mmHg 90%
    19:00 -4°C° 0.3 mm 5 mps 743 mmHg 92%
    20:00 -2°C° 0.9 mm 5 mps 742 mmHg 93%
    21:00 -2°C° 0.9 mm 5 mps 742 mmHg 93%
    22:00 -2°C° 0.9 mm 5 mps 741 mmHg 94%
    23:00 -2°C° 0.8 mm 4 mps 741 mmHg 95%
    Show more